Location: Unnamed
(51.8936°N, 11.0665°E)
Time: 01:26:53
(UTC+02:00)

UKube-1 - Pass Details

Date: 29 September 2021
Orbit: 611 x 618 km, 98.4° (Epoch: 18 October)

Event Time Altitude Azimuth Distance (km) Brightness Sun altitude
Rises 22:47:36 0° 10° (N) 2,893 ? -33.1°
Reaches altitude 10° 22:49:51 10° 5° (N) 1,984 ? -33.3°
Enters shadow 22:51:02 18° 359° (N) 1,532 ? -33.4°
